SL-14 R/B

Satellite information

Favourite Embed

Satellite Type and Status

ROCKET BODYIN ORBIT

Key statistics

Satellite SL-14 R/B at a glance.

Uptime

14046

Days in orbit

Revolutions

≈ 14.9

Per day

Orbit

LEO

Low Earth Orbit

Inclination

82.5

Latest

Satellite identification and parameters

Extended collection of information and parameters for SL-14 R/B.

Object identification

Identified? True

Debris? False

Object name: SL-14 R/B

International designator: 1987-055B

Object number (NORAD): 18153

Object ID (CCSDS): 18153

Country: COMMONWEALTH OF INDEPENDENT STATES (CIS)

Current information (Y/N): Y

RCS size: LARGE

Orbital parameters

Period: 96.936 minutes

Inclination: 82.5001 deg

SMA: 6990.083 km

Apoapsis: 625.483 km

Periapsis: 598.413 km

RAAN: 70.1169 deg

Eccentricy: 0.00193631

Argument of periapsis: 300.0677 deg

Mean anomaly: 59.8618 deg

Mean motion: 14.85522641 rev/day

Mean motion (dot): 0.00000716 rev/day2

B* drag term: 0.00007993203 1/REarth

Two-line elements (TLE)

Creation date: Dec. 14, 2025, 3:07 a.m.

Reference frame: TEME

Reference center: EARTH

Epoch: Dec. 13, 2025, 3:57 p.m. UTC

TLE line 0: 0 SL-14 R/B

TLE line 1: 1 18153U 87055B 25347.66468088 .00000716 00000-0 79932-4 0 9998

TLE line 2: 2 18153 82.5001 70.1169 0019363 300.0677 59.8618 14.85522641 57169

Live tracking on map

Real-time ground track for satellite SL-14 R/B.

In-orbit conjunctions

A list of the most updated potential collisions computed for object SL-14 R/B.

Target Orbit TCA Probability of collision Miss distance Type
CZ-4B DEB SSO 2025-10-07 12:31:50 0.0004402146 212.0 (m) DEBRIS
SL-14 R/B LEO 2025-08-17 18:18:33 0.0001202175 124.0 (m) ROCKET BODY
CZ-4C DEB SSO 2025-03-26 07:48:49 0.0003672571 660.0 (m) DEBRIS
SL-16 R/B SSO 2025-03-13 02:51:42 0.000279672 435.0 (m) ROCKET BODY
SL-14 R/B LEO 2024-09-23 03:11:55 0.000106284 84.0 (m) ROCKET BODY

Associated space launch

Tselina-D satellites provided detailed observation of radio sources detected by the smaller Tselina-O satellites as part of the Tselina ELINT system.

SL-14 R/B was lifted into orbit during the mission ‘Tsiklon-3 | Tselina-D 61’, on board a Tsiklon-3 space rocket.

The launch took place on July 1, 1987, 7:35 p.m. from 32/2.

For more information about the launch, click the button.

Launch to space Tsiklon-3 | Tselina-D 61
Tsiklon-3 | Tselina-D 61

Agency: N/A

Status: Launch Successful

Launch date: July 1, 1987, 7:35 p.m. UTC

Rocket: Tsiklon-3

Launch pad: 32/2

Location: Plesetsk Cosmodrome, Russian Federation

...

Latest news about this satellite

There are no fresh news available about this satellite. Check back as we update our databases every day.


Newsletter sign-up

Weekly statistics, charts and insights to help you stay on top of the space industry.